| time (UTC) | temp C | wind direction | speed KPH | gust KPH | rain 1hr cm | rain 24hr cm | rain mn cm | humidity % | barometer mb |
| 20260505223014 | 13 | 304 | 0.0 | 1.6 | 0.03 | 1.09 | 0.00 | 88 | 1009.2 |
| 20260505221510 | 13 | 304 | 0.0 | 0.0 | 0.03 | 1.09 | 0.00 | 87 | 1009.2 |
| 20260505220006 | 14 | 304 | 0.0 | 1.6 | 0.03 | 1.09 | 0.00 | 87 | 1009.6 |
| 20260505214505 | 14 | 304 | 1.6 | 9.7 | 0.03 | 1.30 | 1.09 | 86 | 1009.8 |
| 20260505213004 | 15 | 265 | 1.6 | 6.4 | 0.00 | 1.27 | 1.07 | 84 | 1010.3 |
| 20260505211504 | 15 | 273 | 1.6 | 6.4 | 0.00 | 1.27 | 1.07 | 81 | 1010.3 |
| 20260505210003 | 14 | 171 | 1.6 | 4.8 | 0.00 | 1.27 | 1.07 | 76 | 1010.4 |
| 20260505204502 | 15 | 169 | 0.0 | 1.6 | 0.00 | 1.27 | 1.07 | 74 | 1009.9 |
| 20260505203002 | 15 | 174 | 1.6 | 6.4 | 0.00 | 1.27 | 1.07 | 74 | 1009.9 |
| 20260505201502 | 15 | 195 | 0.0 | 3.2 | 0.00 | 1.27 | 1.07 | 74 | 1009.9 |
| 20260505200103 | 15 | 195 | 0.0 | 4.8 | 0.00 | 1.27 | 1.07 | 75 | 1009.8 |
| 20260505194622 | 15 | 197 | 0.0 | 3.2 | 0.00 | 1.27 | 1.07 | 79 | 1009.6 |
| 20260505194504 | 15 | 197 | 0.0 | 1.6 | 0.00 | 1.27 | 1.07 | 79 | 1009.6 |
| 20260505193059 | 15 | 197 | 0.0 | 3.2 | 0.00 | 1.27 | 1.07 | 79 | 1009.6 |
| 20260505191559 | 15 | 197 | 0.0 | 3.2 | 0.00 | 1.27 | 1.07 | 78 | 1009.6 |
| 20260505190058 | 16 | 197 | 0.0 | 1.6 | 0.00 | 1.27 | 1.07 | 76 | 1009.9 |
| 20260505184558 | 16 | 197 | 0.0 | 3.2 | 0.00 | 1.93 | 1.07 | 74 | 1009.8 |
| 20260505183058 | 16 | 197 | 0.0 | 3.2 | 0.00 | 1.93 | 1.07 | 73 | 1009.9 |
| 20260505181659 | 16 | 197 | 0.0 | 3.2 | 0.00 | 1.93 | 1.07 | 72 | 1010.0 |
| 20260505180021 | 17 | 197 | 3.2 | 8.0 | 0.00 | 1.93 | 1.07 | 70 | 1010.0 |
| 20260505174557 | 17 | 180 | 1.6 | 6.4 | 0.00 | 1.98 | 1.07 | 64 | 1009.9 |
| 20260505173056 | 18 | 177 | 1.6 | 9.7 | 0.00 | 1.98 | 1.07 | 63 | 1009.8 |
| 20260505171554 | 18 | 167 | 4.8 | 8.0 | 0.00 | 1.98 | 1.07 | 60 | 1009.8 |
| 20260505170054 | 19 | 173 | 3.2 | 9.7 | 0.00 | 1.98 | 1.07 | 59 | 1009.9 |
| 20260505164614 | 19 | 229 | 3.2 | 12.9 | 0.00 | 2.01 | 1.07 | 61 | 1010.0 |
| 20260505163101 | 18 | 242 | 3.2 | 12.9 | 0.00 | 2.01 | 1.07 | 63 | 1010.1 |
| 20260505161600 | 19 | 176 | 3.2 | 14.5 | 0.00 | 2.01 | 1.07 | 62 | 1010.1 |
| 20260505153016 | 21 | 254 | 6.4 | 24.1 | 0.00 | 2.59 | 1.07 | 55 | 1010.0 |
| 20260505151517 | 21 | 239 | 4.8 | 14.5 | 0.00 | 2.59 | 1.07 | 55 | 1010.0 |
| 20260505130105 | 21 | 261 | 6.4 | 16.1 | 0.00 | 3.43 | 1.07 | 57 | 1010.4 |
| 20260505124552 | 22 | 132 | 1.6 | 11.3 | 0.00 | 3.48 | 1.07 | 53 | 1010.4 |
| 20260505123046 | 22 | 300 | 1.6 | 12.9 | 0.00 | 3.48 | 1.07 | 54 | 1010.5 |
| 20260505121540 | 21 | 269 | 3.2 | 11.3 | 0.00 | 3.48 | 1.07 | 55 | 1010.7 |
| 20260505120037 | 21 | 235 | 3.2 | 12.9 | 0.00 | 3.48 | 1.07 | 58 | 1010.8 |
| 20260505114535 | 20 | 240 | 4.8 | 14.5 | 0.00 | 3.51 | 1.07 | 60 | 1010.9 |
| 20260505113008 | 20 | 205 | 4.8 | 14.5 | 0.00 | 3.51 | 1.07 | 62 | 1011.1 |
| 20260505111511 | 19 | 248 | 4.8 | 11.3 | 0.00 | 3.51 | 1.07 | 65 | 1011.2 |
| 20260505110106 | 19 | 250 | 3.2 | 12.9 | 0.00 | 3.51 | 1.07 | 65 | 1011.3 |
| 20260505101623 | 18 | 173 | 1.6 | 8.0 | 0.00 | 3.51 | 1.07 | 70 | 1011.3 |
| 20260505100057 | 18 | 269 | 4.8 | 12.9 | 0.00 | 3.51 | 1.07 | 71 | 1011.3 |
| 20260505094556 | 18 | 263 | 3.2 | 9.7 | 0.00 | 3.51 | 1.07 | 72 | 1011.3 |
| 20260505093052 | 18 | 217 | 4.8 | 11.3 | 0.00 | 3.51 | 1.07 | 73 | 1011.2 |
| 20260505091548 | 18 | 133 | 1.6 | 11.3 | 0.00 | 3.51 | 1.07 | 76 | 1011.3 |
| 20260505090044 | 17 | 175 | 3.2 | 9.7 | 0.00 | 3.51 | 1.07 | 81 | 1011.3 |
| 20260505084541 | 17 | 167 | 4.8 | 9.7 | 0.00 | 3.61 | 1.07 | 86 | 1011.2 |
| 20260505083036 | 16 | 238 | 1.6 | 14.5 | 0.00 | 3.61 | 1.07 | 88 | 1011.2 |
| 20260505081542 | 15 | 167 | 4.8 | 16.1 | 0.00 | 3.61 | 1.07 | 91 | 1011.1 |
| 20260505080033 | 15 | 221 | 1.6 | 8.0 | 0.00 | 3.61 | 1.07 | 92 | 1011.1 |
| 20260505074526 | 15 | 217 | 1.6 | 6.4 | 0.00 | 3.71 | 1.07 | 93 | 1011.0 |
| 20260505073020 | 14 | 207 | 3.2 | 8.0 | 0.00 | 3.71 | 1.07 | 93 | 1011.0 |
| 20260505071531 | 14 | 180 | 1.6 | 6.4 | 0.00 | 3.71 | 1.07 | 93 | 1010.9 |
| 20260505070014 | 14 | 152 | 1.6 | 6.4 | 0.00 | 3.71 | 1.07 | 93 | 1010.9 |
| 20260505064520 | 14 | 117 | 0.0 | 11.3 | 0.00 | 3.91 | 1.07 | 94 | 1010.6 |
| 20260505063014 | 13 | 98 | 0.0 | 9.7 | 0.00 | 3.91 | 1.07 | 94 | 1010.4 |
| 20260505061511 | 13 | 68 | 1.6 | 6.4 | 0.00 | 3.91 | 1.07 | 94 | 1010.3 |
| 20260505060039 | 13 | 71 | 1.6 | 6.4 | 0.00 | 3.91 | 1.07 | 94 | 1010.3 |
| 20260505053052 | 13 | 115 | 3.2 | 9.7 | 0.00 | 3.91 | 1.07 | 94 | 1010.1 |
| 20260505051538 | 13 | 105 | 1.6 | 6.4 | 0.00 | 3.91 | 1.07 | 94 | 1010.0 |
| 20260505041529 | 12 | 108 | 1.6 | 12.9 | 0.00 | 4.09 | 1.07 | 94 | 1009.8 |
| 20260505040036 | 12 | 53 | 0.0 | 3.2 | 0.00 | 4.09 | 1.07 | 94 | 1009.9 |
| 20260505034526 | 12 | 53 | 0.0 | 3.2 | 0.00 | 4.17 | 1.07 | 94 | 1009.8 |
| 20260505033031 | 12 | 53 | 0.0 | 1.6 | 0.00 | 4.17 | 1.07 | 94 | 1009.8 |
| 20260505031525 | 12 | 53 | 0.0 | 3.2 | 0.00 | 4.17 | 1.07 | 94 | 1009.8 |
| 20260505030027 | 12 | 161 | 1.6 | 12.9 | 0.00 | 4.17 | 1.07 | 94 | 1009.7 |
| 20260505024522 | 12 | 88 | 3.2 | 11.3 | 0.03 | 4.17 | 1.07 | 94 | 1009.7 |
| 20260505023022 | 12 | 85 | 1.6 | 6.4 | 0.03 | 4.17 | 1.07 | 94 | 1009.9 |
| 20260505021525 | 12 | 81 | 0.0 | 6.4 | 0.05 | 4.17 | 1.07 | 94 | 1010.3 |
| 20260505020020 | 12 | 71 | 0.0 | 3.2 | 0.05 | 4.17 | 1.07 | 94 | 1010.1 |
| 20260505014520 | 12 | 71 | 0.0 | 4.8 | 0.05 | 4.14 | 1.04 | 94 | 1010.2 |
| 20260505013020 | 12 | 92 | 3.2 | 12.9 | 0.05 | 4.14 | 1.04 | 93 | 1009.9 |
| 20260505011517 | 13 | 102 | 3.2 | 9.7 | 0.05 | 4.11 | 1.02 | 93 | 1010.1 |
| 20260505010017 | 13 | 98 | 6.4 | 14.5 | 0.08 | 4.11 | 1.02 | 94 | 1010.2 |
| 20260505004516 | 12 | 92 | 3.2 | 16.1 | 0.08 | 4.09 | 0.99 | 93 | 1010.2 |
| 20260505003014 | 12 | 98 | 4.8 | 16.1 | 0.15 | 4.09 | 0.99 | 93 | 1010.3 |
| 20260505001513 | 12 | 80 | 4.8 | 16.1 | 0.15 | 4.06 | 0.97 | 93 | 1010.2 |
| 20260505000011 | 12 | 76 | 4.8 | 16.1 | 0.23 | 4.04 | 0.94 | 94 | 1010.4 |
| 20260504234508 | 12 | 111 | 6.4 | 17.7 | 0.38 | 4.01 | 0.91 | 93 | 1010.5 |
| 20260504233010 | 12 | 97 | 6.4 | 16.1 | 0.46 | 3.94 | 0.84 | 93 | 1010.5 |
| 20260504231503 | 12 | 105 | 4.8 | 17.7 | 0.61 | 3.91 | 0.81 | 93 | 1010.5 |
| 20260504230002 | 12 | 113 | 8.0 | 19.3 | 0.69 | 3.78 | 0.69 | 93 | 1010.7 |
| 20260504224602 | 12 | 57 | 6.4 | 16.1 | 0.69 | 3.66 | 0.56 | 93 | 1010.8 |
| 20260504224501 | 12 | 71 | 4.8 | 16.1 | 0.66 | 3.63 | 0.53 | 93 | 1010.8 |